COSMOS 2457 (733)

Last updated on Jan. 23, 2021, 7:31 a.m. UTC

1 36112U 09070B   21022.79325538 -.00000005  00000-0  00000-0 0  9994
2 36112  64.2372 138.4659 0006321 155.4149 207.2496  2.13101360 86467
UTC
Height (km)
Latitude
Longitude
Inclination
Orbital Period
UTC large
Height (km)
Speed (km/s)
/
Latitude / Longitude
Inclination (degrees)
Orbital Period (minutes)
Azimuth
Elevation
Range (km)
Doppler Factor
iOS Compass Heading
iOS Angle

Next 30 passes for location: Hong Kong

Rise time Rise Azimuth (degrees) Set time Set Azimuth (degrees) Duration Max altitude (degrees)

No matching passes for this satellites